Anchorage Merrill, AK

11:16 AM AKDT on July 28, 2017 (GMT -0800)
Merrill

Weather History for PAMR - December, 2012

Change the Weather History Date:

Thursday, December 27, 2012

  Actual Average Record
Temperature  
Mean Temperature 22 °F -  
Max Temperature 27 °F 19 °F 46 °F (1999)
Min Temperature 17 °F 6 °F -8 °F (2003)
Degree Days  
Heating Degree Days 43    
Moisture  
Dew Point 18 °F    
Average Humidity 83    
Maximum Humidity 92    
Minimum Humidity 71    
Precipitation  
Precipitation 0.01 in - - ()
Sea Level Pressure  
Sea Level Pressure 29.36 in    
Wind  
Wind Speed 2 mph (ENE)    
Max Wind Speed 8 mph    
Max Gust Speed -    
Visibility 10 miles    
Events Snow    
Averages and records for this station are not official NWS values.
T = Trace of Precipitation, MM = Missing Value Source: NWS Daily Summary

Daily Weather History Graph

Daily Weather History Graph

Search for Another Location

Airport or City:

Trip Planner

Search our weather history database for the weather conditions in past years. The results will help you decide how hot, cold, wet, or windy it might be!

Date:

Astronomy

Dec. 27, 2012 Rise Set
Actual Time 10:15 AM AKST 3:46 PM AKST
Civil Twilight 9:13 AM AKST 4:48 PM AKST
Nautical Twilight 8:13 AM AKST 5:48 PM AKST
Astronomical Twilight 7:20 AM AKST 6:41 PM AKST
Moon 3:53 PM AKST (12/27) 9:20 AM AKST (12/27)
Length of Visible Light 7h 35m
Length of Day
5h 31m
Full, 100% of the Moon is Illuminated
Dec 27
Full
Dec 28
Full
Jan 4
Last Quarter
Jan 11
New
Jan 18
First Quarter

Hourly Weather History & Observations

Time (AKST) Temp. Windchill Dew Point Humidity Pressure Visibility Wind Dir Wind Speed Gust Speed Precip Events Conditions
12:53 AM 25.0 °F - 21.0 °F 85% 29.37 in 9.0 mi Calm Calm - 0.00 in Snow Light Snow
1:53 AM 23.0 °F 18.4 °F 19.9 °F 88% 29.36 in 10.0 mi ENE 3.5 mph - 0.00 in Snow Light Snow
3:53 AM 23.0 °F 17.0 °F 19.0 °F 85% 29.35 in 10.0 mi ESE 4.6 mph - N/A   Mostly Cloudy
4:53 AM 23.0 °F - 18.0 °F 81% 29.34 in 10.0 mi Calm Calm - N/A   Mostly Cloudy
5:53 AM 21.9 °F - 17.1 °F 82% 29.33 in 10.0 mi Calm Calm - N/A   Scattered Clouds
6:53 AM 18.0 °F - 15.1 °F 88% 29.32 in 10.0 mi Calm Calm - N/A   Scattered Clouds
7:53 AM 19.9 °F - 17.1 °F 89% 29.32 in 10.0 mi Calm Calm - N/A   Mostly Cloudy
8:53 AM 21.9 °F - 17.1 °F 82% 29.33 in 10.0 mi Calm Calm - N/A   Mostly Cloudy
9:53 AM 19.9 °F - 16.0 °F 85% 29.34 in 10.0 mi Calm Calm - N/A   Overcast
10:53 AM 17.1 °F - 15.1 °F 92% 29.35 in 10.0 mi Calm Calm - 0.01 in   Mostly Cloudy
11:53 AM 24.1 °F - 18.0 °F 77% 29.34 in 10.0 mi Calm Calm - N/A   Mostly Cloudy
12:53 PM 26.1 °F 21.9 °F 18.0 °F 71% 29.33 in 10.0 mi ENE 3.5 mph - N/A   Mostly Cloudy
1:53 PM 27.0 °F 20.5 °F 21.0 °F 78% 29.32 in 10.0 mi NNW 5.8 mph - N/A   Scattered Clouds
2:53 PM 26.1 °F 17.6 °F 19.9 °F 78% 29.33 in 10.0 mi East 8.1 mph - N/A   Clear
3:53 PM 26.1 °F 21.9 °F 19.9 °F 78% 29.35 in 10.0 mi West 3.5 mph - N/A   Scattered Clouds
4:53 PM 21.9 °F 17.2 °F 17.1 °F 82% 29.36 in 10.0 mi SE 3.5 mph - N/A   Scattered Clouds
5:53 PM 23.0 °F - 18.0 °F 81% 29.37 in 10.0 mi Calm Calm - N/A   Partly Cloudy
6:53 PM 25.0 °F - 19.9 °F 81% 29.39 in 10.0 mi Calm Calm - N/A   Clear
8:53 PM 23.0 °F - 19.0 °F 85% 29.41 in 10.0 mi Calm Calm - N/A   Partly Cloudy
9:53 PM 18.0 °F 11.1 °F 15.1 °F 88% 29.42 in 10.0 mi SE 4.6 mph - N/A   Scattered Clouds
10:53 PM 19.0 °F - 16.0 °F 88% 29.44 in 10.0 mi Calm Calm - N/A   Mostly Cloudy
11:53 PM 21.9 °F 15.7 °F 18.0 °F 85% 29.43 in 10.0 mi North 4.6 mph - N/A   Overcast